User: anonymous
Location: Unspecified
(0.0000°N, 0.0000°E)
Time: 05:48:21
(UTC+00:00)
Language:

Aussat K3 - Orbit

View from above orbital plane
View from above orbital plane
View from above satellite
View from above satellite

Ground track
Ground track

The orbit data is extracted from the following two-line orbital elements,

1 18350U 87078A   14261.23782027 -.00000202  00000-0  00000+0 0  1617
2 18350 013.8027 028.8421 0003489 227.5054 130.9352 00.98906584 98092
Epoch (UTC): 18 September 2014 05:42:27
Eccentricity: 0.0003489
inclination: 13.8027°
perigee height: 36158 km
apogee height: 36188 km
right ascension of ascending node: 28.8421°
argument of perigee: 227.5054°
revolutions per day: 0.98906584
mean anomaly at epoch: 130.9352°
orbit number at epoch: 9809

The dashed part of the orbit path shows where the satellite is in the earth's shadow,  

DLR